Time,TemperatureF,DewpointF,PressureIn,WindDirection,WindDirectionDegrees,WindSpeedMPH,WindSpeedGustMPH,Humidity,HourlyPrecipIn,Conditions,Clouds,dailyrainin,SoftwareType,DateUTC
2013-04-05 00:00:00,52.0,50.0,-100.00,WSW,246,3.0,-999.0,93,0.00,,,-99.99,,2013-04-05 07:00:00,
2013-04-05 00:23:00,52.0,50.0,-100.00,WSW,246,3.0,-999.0,93,0.00,,,-99.99,,2013-04-05 07:23:00,
2013-04-05 00:32:00,52.0,50.0,-100.00,WSW,246,3.0,-999.0,93,0.00,,,-99.99,,2013-04-05 07:32:00,
2013-04-05 00:42:00,52.0,50.0,-100.00,WSW,246,3.0,-999.0,93,0.00,,,-99.99,,2013-04-05 07:42:00,
2013-04-05 00:52:00,52.0,50.0,-100.00,WSW,246,3.0,-999.0,93,0.00,,,-99.99,,2013-04-05 07:52:00,
2013-04-05 01:00:00,52.0,50.0,-100.00,NNW,330,6.0,-999.0,93,0.00,,,-99.99,,2013-04-05 08:00:00,
2013-04-05 01:23:00,52.0,50.0,-100.00,NNW,330,6.0,-999.0,93,0.00,,,-99.99,,2013-04-05 08:23:00,
2013-04-05 01:33:00,52.0,50.0,-100.00,NNW,330,6.0,-999.0,93,0.00,,,-99.99,,2013-04-05 08:33:00,
2013-04-05 01:43:00,52.0,50.0,-100.00,NNW,330,6.0,-999.0,93,0.00,,,-99.99,,2013-04-05 08:43:00,
2013-04-05 01:52:00,52.0,50.0,-100.00,NNW,330,6.0,-999.0,93,0.00,,,-99.99,,2013-04-05 08:52:00,
2013-04-05 02:00:00,52.0,50.0,-100.00,ESE,103,2.0,-999.0,94,0.00,,,-99.99,,2013-04-05 09:00:00,
2013-04-05 02:22:00,52.0,50.0,-100.00,ESE,103,2.0,-999.0,94,0.00,,,-99.99,,2013-04-05 09:22:00,
2013-04-05 02:33:00,52.0,50.0,-100.00,ESE,103,2.0,-999.0,94,0.00,,,-99.99,,2013-04-05 09:33:00,
2013-04-05 02:43:00,52.0,50.0,-100.00,ESE,103,2.0,-999.0,94,0.00,,,-99.99,,2013-04-05 09:43:00,
2013-04-05 02:53:00,52.0,50.0,-100.00,ESE,103,2.0,-999.0,94,0.00,,,-99.99,,2013-04-05 09:53:00,
2013-04-05 03:00:00,52.0,50.0,-100.00,WSW,258,5.0,-999.0,94,0.00,,,-99.99,,2013-04-05 10:00:00,
2013-04-05 03:23:00,52.0,50.0,-100.00,WSW,258,5.0,-999.0,94,0.00,,,-99.99,,2013-04-05 10:23:00,
2013-04-05 03:33:00,52.0,50.0,-100.00,WSW,258,5.0,-999.0,94,0.00,,,-99.99,,2013-04-05 10:33:00,
2013-04-05 03:43:00,52.0,50.0,-100.00,WSW,258,5.0,-999.0,94,0.00,,,-99.99,,2013-04-05 10:43:00,
2013-04-05 03:53:00,52.0,50.0,-100.00,WSW,258,5.0,-999.0,94,0.00,,,-99.99,,2013-04-05 10:53:00,
2013-04-05 04:00:00,52.0,51.0,-100.00,ESE,116,1.0,-999.0,94,0.00,,,-99.99,,2013-04-05 11:00:00,
2013-04-05 04:22:00,52.0,51.0,-100.00,ESE,116,1.0,-999.0,94,0.00,,,-99.99,,2013-04-05 11:22:00,
2013-04-05 04:33:00,52.0,51.0,-100.00,ESE,116,1.0,-999.0,94,0.00,,,-99.99,,2013-04-05 11:33:00,
2013-04-05 04:42:00,52.0,51.0,-100.00,ESE,116,1.0,-999.0,94,0.00,,,-99.99,,2013-04-05 11:42:00,
2013-04-05 04:52:00,52.0,51.0,-100.00,ESE,116,1.0,-999.0,94,0.00,,,-99.99,,2013-04-05 11:52:00,
2013-04-05 05:00:00,52.0,50.0,-100.00,NNW,345,0.0,-999.0,94,0.00,,,-99.99,,2013-04-05 12:00:00,
2013-04-05 05:22:00,52.0,50.0,-100.00,NNW,345,0.0,-999.0,94,0.00,,,-99.99,,2013-04-05 12:22:00,
2013-04-05 05:32:00,52.0,50.0,-100.00,NNW,345,0.0,-999.0,94,0.00,,,-99.99,,2013-04-05 12:32:00,
2013-04-05 05:42:00,52.0,50.0,-100.00,NNW,345,0.0,-999.0,94,0.00,,,-99.99,,2013-04-05 12:42:00,
2013-04-05 05:52:00,52.0,50.0,-100.00,NNW,345,0.0,-999.0,94,0.00,,,-99.99,,2013-04-05 12:52:00,
2013-04-05 06:00:00,52.0,50.0,-100.00,NNW,327,3.0,-999.0,94,0.00,,,-99.99,,2013-04-05 13:00:00,
2013-04-05 06:23:00,52.0,50.0,-100.00,NNW,327,3.0,-999.0,94,0.00,,,-99.99,,2013-04-05 13:23:00,
2013-04-05 06:32:00,52.0,50.0,-100.00,NNW,327,3.0,-999.0,94,0.00,,,-99.99,,2013-04-05 13:32:00,
2013-04-05 06:42:00,52.0,50.0,-100.00,NNW,327,3.0,-999.0,94,0.00,,,-99.99,,2013-04-05 13:42:00,
2013-04-05 06:52:00,52.0,50.0,-100.00,NNW,327,3.0,-999.0,94,0.00,,,-99.99,,2013-04-05 13:52:00,
2013-04-05 07:00:00,50.0,49.0,-100.00,SSE,162,1.0,-999.0,94,0.00,,,-99.99,,2013-04-05 14:00:00,
2013-04-05 07:23:00,50.0,49.0,-100.00,SSE,162,1.0,-999.0,94,0.00,,,-99.99,,2013-04-05 14:23:00,
2013-04-05 07:37:00,50.0,49.0,-100.00,SSE,162,1.0,-999.0,94,0.00,,,-99.99,,2013-04-05 14:37:00,
2013-04-05 07:43:00,50.0,49.0,-100.00,SSE,162,1.0,-999.0,94,0.00,,,-99.99,,2013-04-05 14:43:00,
2013-04-05 07:53:00,50.0,49.0,-100.00,SSE,162,1.0,-999.0,94,0.00,,,-99.99,,2013-04-05 14:53:00,
2013-04-05 08:00:00,51.0,49.0,-100.00,SW,229,0.0,-999.0,94,0.00,,,-99.99,,2013-04-05 15:00:00,
2013-04-05 08:23:00,51.0,49.0,-100.00,SW,229,0.0,-999.0,94,0.00,,,-99.99,,2013-04-05 15:23:00,
2013-04-05 08:33:00,51.0,49.0,-100.00,SW,229,0.0,-999.0,94,0.00,,,-99.99,,2013-04-05 15:33:00,
2013-04-05 08:43:00,51.0,49.0,-100.00,SW,229,0.0,-999.0,94,0.00,,,-99.99,,2013-04-05 15:43:00,
2013-04-05 08:53:00,51.0,49.0,-100.00,SW,229,0.0,-999.0,94,0.00,,,-99.99,,2013-04-05 15:53:00,
2013-04-05 09:00:00,51.0,50.0,-100.00,SSW,192,2.0,-999.0,94,0.00,,,-99.99,,2013-04-05 16:00:00,
2013-04-05 09:23:00,51.0,50.0,-100.00,SSW,192,2.0,-999.0,94,0.00,,,-99.99,,2013-04-05 16:23:00,
2013-04-05 09:33:00,51.0,50.0,-100.00,SSW,192,2.0,-999.0,94,0.00,,,-99.99,,2013-04-05 16:33:00,
2013-04-05 09:43:00,51.0,50.0,-100.00,SSW,192,2.0,-999.0,94,0.00,,,-99.99,,2013-04-05 16:43:00,
2013-04-05 09:52:00,51.0,50.0,-100.00,SSW,192,2.0,-999.0,94,0.00,,,-99.99,,2013-04-05 16:52:00,
2013-04-05 10:00:00,52.0,50.0,-100.00,South,169,1.0,-999.0,92,0.00,,,-99.99,,2013-04-05 17:00:00,
2013-04-05 10:23:00,52.0,50.0,-100.00,South,169,1.0,-999.0,92,0.00,,,-99.99,,2013-04-05 17:23:00,
2013-04-05 10:33:00,52.0,50.0,-100.00,South,169,1.0,-999.0,92,0.00,,,-99.99,,2013-04-05 17:33:00,
2013-04-05 10:45:00,52.0,50.0,-100.00,South,169,1.0,-999.0,92,0.00,,,-99.99,,2013-04-05 17:45:00,
2013-04-05 10:52:00,52.0,50.0,-100.00,South,169,1.0,-999.0,92,0.00,,,-99.99,,2013-04-05 17:52:00,
2013-04-05 11:00:00,53.0,48.0,-100.00,SSW,192,2.0,-999.0,82,0.00,,,-99.99,,2013-04-05 18:00:00,
2013-04-05 11:23:00,53.0,48.0,-100.00,SSW,192,2.0,-999.0,82,0.00,,,-99.99,,2013-04-05 18:23:00,
2013-04-05 11:34:00,53.0,48.0,-100.00,SSW,192,2.0,-999.0,82,0.00,,,-99.99,,2013-04-05 18:34:00,
2013-04-05 11:43:00,53.0,48.0,-100.00,SSW,192,2.0,-999.0,82,0.00,,,-99.99,,2013-04-05 18:43:00,
2013-04-05 11:52:00,53.0,48.0,-100.00,SSW,192,2.0,-999.0,82,0.00,,,-99.99,,2013-04-05 18:52:00,
2013-04-05 12:00:00,56.0,47.0,-100.00,South,188,0.0,-999.0,73,0.00,,,-99.99,,2013-04-05 19:00:00,
2013-04-05 12:23:00,56.0,47.0,-100.00,South,188,0.0,-999.0,73,0.00,,,-99.99,,2013-04-05 19:23:00,
2013-04-05 12:33:00,56.0,47.0,-100.00,South,188,0.0,-999.0,73,0.00,,,-99.99,,2013-04-05 19:33:00,
2013-04-05 12:42:00,56.0,47.0,-100.00,South,188,0.0,-999.0,73,0.00,,,-99.99,,2013-04-05 19:42:00,
2013-04-05 12:52:00,56.0,47.0,-100.00,South,188,0.0,-999.0,73,0.00,,,-99.99,,2013-04-05 19:52:00,
2013-04-05 13:00:00,55.0,51.0,-100.00,SSW,205,5.0,-999.0,85,0.00,,,-99.99,,2013-04-05 20:00:00,
2013-04-05 13:23:00,55.0,51.0,-100.00,SSW,205,5.0,-999.0,85,0.00,,,-99.99,,2013-04-05 20:23:00,
2013-04-05 13:33:00,55.0,51.0,-100.00,SSW,205,5.0,-999.0,85,0.00,,,-99.99,,2013-04-05 20:33:00,
2013-04-05 13:43:00,55.0,51.0,-100.00,SSW,205,5.0,-999.0,85,0.00,,,-99.99,,2013-04-05 20:43:00,
2013-04-05 13:52:00,55.0,51.0,-100.00,SSW,205,5.0,-999.0,85,0.00,,,-99.99,,2013-04-05 20:52:00,
2013-04-05 14:00:00,56.0,50.0,-100.00,SE,125,4.0,-999.0,78,0.00,,,-99.99,,2013-04-05 21:00:00,
2013-04-05 14:24:00,56.0,50.0,-100.00,SE,125,4.0,-999.0,78,0.00,,,-99.99,,2013-04-05 21:24:00,
2013-04-05 14:34:00,56.0,50.0,-100.00,SE,125,4.0,-999.0,78,0.00,,,-99.99,,2013-04-05 21:34:00,
2013-04-05 14:44:00,56.0,50.0,-100.00,SE,125,4.0,-999.0,78,0.00,,,-99.99,,2013-04-05 21:44:00,
2013-04-05 14:54:00,56.0,50.0,-100.00,SE,125,4.0,-999.0,78,0.00,,,-99.99,,2013-04-05 21:54:00,
2013-04-05 15:00:00,57.0,50.0,-100.00,South,191,2.0,-999.0,76,0.00,,,-99.99,,2013-04-05 22:00:00,
2013-04-05 15:23:00,57.0,50.0,-100.00,South,191,2.0,-999.0,76,0.00,,,-99.99,,2013-04-05 22:23:00,
2013-04-05 15:33:00,57.0,50.0,-100.00,South,191,2.0,-999.0,76,0.00,,,-99.99,,2013-04-05 22:33:00,
2013-04-05 15:52:00,57.0,50.0,-100.00,South,191,2.0,-999.0,76,0.00,,,-99.99,,2013-04-05 22:52:00,
2013-04-05 17:00:00,59.0,50.0,-100.00,NNW,331,4.0,-999.0,71,0.00,,,-99.99,,2013-04-06 00:00:00,
2013-04-05 17:23:00,59.0,50.0,-100.00,NNW,331,4.0,-999.0,71,0.00,,,-99.99,,2013-04-06 00:23:00,
2013-04-05 17:33:00,59.0,50.0,-100.00,NNW,331,4.0,-999.0,71,0.00,,,-99.99,,2013-04-06 00:33:00,
2013-04-05 17:42:00,59.0,50.0,-100.00,NNW,331,4.0,-999.0,71,0.00,,,-99.99,,2013-04-06 00:42:00,
2013-04-05 17:52:00,59.0,50.0,-100.00,NNW,331,4.0,-999.0,71,0.00,,,-99.99,,2013-04-06 00:52:00,
2013-04-05 18:00:00,57.0,48.0,-100.00,SW,236,3.0,-999.0,72,0.00,,,-99.99,,2013-04-06 01:00:00,
2013-04-05 18:23:00,57.0,48.0,-100.00,SW,236,3.0,-999.0,72,0.00,,,-99.99,,2013-04-06 01:23:00,
2013-04-05 18:33:00,57.0,48.0,-100.00,SW,236,3.0,-999.0,72,0.00,,,-99.99,,2013-04-06 01:33:00,
2013-04-05 18:43:00,57.0,48.0,-100.00,SW,236,3.0,-999.0,72,0.00,,,-99.99,,2013-04-06 01:43:00,
2013-04-05 18:53:00,57.0,48.0,-100.00,SW,236,3.0,-999.0,72,0.00,,,-99.99,,2013-04-06 01:53:00,
2013-04-05 19:00:00,56.0,48.0,-100.00,WNW,295,2.0,-999.0,76,0.00,,,-99.99,,2013-04-06 02:00:00,
2013-04-05 19:23:00,56.0,48.0,-100.00,WNW,295,2.0,-999.0,76,0.00,,,-99.99,,2013-04-06 02:23:00,
2013-04-05 19:33:00,56.0,48.0,-100.00,WNW,295,2.0,-999.0,76,0.00,,,-99.99,,2013-04-06 02:33:00,
2013-04-05 19:43:00,56.0,48.0,-100.00,WNW,295,2.0,-999.0,76,0.00,,,-99.99,,2013-04-06 02:43:00,
2013-04-05 19:52:00,56.0,48.0,-100.00,WNW,295,2.0,-999.0,76,0.00,,,-99.99,,2013-04-06 02:52:00,
2013-04-05 20:00:00,53.0,48.0,-100.00,WSW,249,1.0,-999.0,83,0.00,,,-99.99,,2013-04-06 03:00:00,
2013-04-05 20:23:00,53.0,48.0,-100.00,WSW,249,1.0,-999.0,83,0.00,,,-99.99,,2013-04-06 03:23:00,
2013-04-05 20:34:00,53.0,48.0,-100.00,WSW,249,1.0,-999.0,83,0.00,,,-99.99,,2013-04-06 03:34:00,
2013-04-05 20:43:00,53.0,48.0,-100.00,WSW,249,1.0,-999.0,83,0.00,,,-99.99,,2013-04-06 03:43:00,
2013-04-05 20:53:00,53.0,48.0,-100.00,WSW,249,1.0,-999.0,83,0.00,,,-99.99,,2013-04-06 03:53:00,
2013-04-05 21:00:00,52.0,48.0,-100.00,West,280,1.0,-999.0,86,0.00,,,-99.99,,2013-04-06 04:00:00,
2013-04-05 21:23:00,52.0,48.0,-100.00,West,280,1.0,-999.0,86,0.00,,,-99.99,,2013-04-06 04:23:00,
2013-04-05 21:33:00,52.0,48.0,-100.00,West,280,1.0,-999.0,86,0.00,,,-99.99,,2013-04-06 04:33:00,
2013-04-05 21:43:00,52.0,48.0,-100.00,West,280,1.0,-999.0,86,0.00,,,-99.99,,2013-04-06 04:43:00,
2013-04-05 21:52:00,52.0,48.0,-100.00,West,280,1.0,-999.0,86,0.00,,,-99.99,,2013-04-06 04:52:00,
2013-04-05 22:00:00,51.0,49.0,-100.00,NNW,337,3.0,-999.0,90,0.00,,,-99.99,,2013-04-06 05:00:00,
2013-04-05 22:23:00,51.0,49.0,-100.00,NNW,337,3.0,-999.0,90,0.00,,,-99.99,,2013-04-06 05:23:00,
2013-04-05 22:33:00,51.0,49.0,-100.00,NNW,337,3.0,-999.0,90,0.00,,,-99.99,,2013-04-06 05:33:00,
2013-04-05 22:43:00,51.0,49.0,-100.00,NNW,337,3.0,-999.0,90,0.00,,,-99.99,,2013-04-06 05:43:00,
2013-04-05 22:52:00,51.0,49.0,-100.00,NNW,337,3.0,-999.0,90,0.00,,,-99.99,,2013-04-06 05:52:00,
2013-04-05 23:00:00,51.0,49.0,-100.00,NNW,335,1.0,-999.0,90,0.00,,,-99.99,,2013-04-06 06:00:00,
2013-04-05 23:22:00,51.0,49.0,-100.00,NNW,335,1.0,-999.0,90,0.00,,,-99.99,,2013-04-06 06:22:00,
2013-04-05 23:33:00,51.0,49.0,-100.00,NNW,335,1.0,-999.0,90,0.00,,,-99.99,,2013-04-06 06:33:00,
2013-04-05 23:43:00,51.0,49.0,-100.00,NNW,335,1.0,-999.0,90,0.00,,,-99.99,,2013-04-06 06:43:00,
2013-04-05 23:52:00,51.0,49.0,-100.00,NNW,335,1.0,-999.0,90,0.00,,,-99.99,,2013-04-06 06:52:00,